Location: Toronto
(43.6667°N, 79.4167°W)
Time: 10:58:46
(UTC-04:00)

X-37B - Pass Details

Date: 27 June 2021
Orbit: 383 x 392 km, 45.0° (Epoch: 01 July)

Event Time Altitude Azimuth Distance (km) Brightness Sun altitude
Rises 21:58:54 0° 260° (W) 2,254 5.0 -8.6°
Reaches altitude 10° 22:00:58 10° 262° (W) 1,401 4.0 -8.9°
Maximum altitude 22:04:07 79° 349° (N) 394 0.7 -9.3°
Drops below altitude 10° 22:07:16 10° 77° (ENE) 1,402 3.1 -9.7°
Enters shadow 22:08:58 - 78° (ENE) 2,099 4.0 -9.9°
